Theta_e
308 308 310 312 313 314 315 314 314 315 316 313 311 309 306 308 308 308 310 308 307 308 308 308 308 308 308 309 308 309 308 308 308 308 308 308 308 308 308 309 312 315 315 314 314 313 313 314 315 316 316 316 314 313 313 313 313 314 316 316 315 315 314 313 313 311 310 310 308 305 304 306 307 306 305 305 306 305 305 305 305 306 306 306 307 307 307 307
309 309 313 314 313 315 318 318 317 317 320 319 316 312 307 308 308 309 309 309 308 308 308 308 308 309 308 309 309 309 309 308 308 308 308 307 308 308 309 310 311 314 315 315 314 314 313 314 315 315 316 316 314 312 312 312 312 314 316 315 316 316 312 310 310 309 309 310 308 305 304 305 306 306 305 306 307 306 306 307 306 305 306 306 307 306 306 306
313 315 317 316 315 317 317 317 317 317 317 317 315 310 307 308 309 310 311 309 308 308 309 309 309 308 308 309 309 309 308 308 308 308 308 307 308 309 309 310 312 314 314 315 314 314 314 314 315 314 315 316 314 312 312 311 311 313 314 315 316 314 310 306 306 306 306 307 307 306 304 303 305 305 305 307 308 307 307 309 308 306 307 307 307 307 307 306
318 319 318 316 316 317 316 315 316 316 313 311 311 308 307 308 308 310 311 309 307 308 309 309 309 309 309 309 308 309 308 308 309 309 308 307 308 309 310 311 312 313 313 313 314 315 314 314 315 314 315 314 312 312 311 310 311 311 313 314 312 309 309 307 304 304 304 305 306 306 304 304 305 304 305 306 308 309 309 309 309 308 308 307 308 307 307 307
321 321 318 317 317 317 316 316 316 316 314 314 314 311 307 307 307 308 309 308 308 308 309 310 310 309 309 308 308 308 308 310 310 309 308 307 308 309 310 311 312 312 312 312 312 313 313 313 314 313 314 312 310 311 310 308 309 311 309 308 307 306 308 307 303 304 304 304 305 304 305 306 305 304 305 306 307 310 309 308 307 307 307 307 307 307 308 307
321 322 321 319 318 318 318 318 318 315 314 314 316 313 308 307 307 307 308 308 308 308 309 310 310 310 310 309 308 308 309 311 310 309 308 307 308 309 310 311 311 312 312 311 310 310 311 311 312 311 312 310 309 310 309 306 308 311 308 304 304 304 306 305 303 304 303 303 305 305 306 305 305 306 305 305 307 308 308 307 307 307 307 307 307 307 307 308
322 322 322 321 320 319 319 321 321 316 312 312 315 314 309 306 306 307 307 308 308 308 308 309 310 310 309 309 308 308 308 309 308 308 307 307 307 308 309 310 310 312 312 311 309 310 310 310 310 310 310 310 308 308 307 306 306 310 309 305 304 303 304 305 303 303 303 303 305 304 305 305 306 307 304 304 307 307 307 307 307 307 307 306 306 307 307 307
323 323 323 322 322 321 321 322 321 317 313 312 315 315 310 307 306 306 307 308 308 309 309 308 310 310 310 309 309 309 309 308 307 307 307 307 307 307 308 309 309 311 311 311 310 310 309 309 309 309 309 309 308 307 306 306 307 309 308 305 303 303 303 304 303 304 304 304 304 303 305 306 305 305 303 305 307 307 307 307 306 306 306 306 306 306 307 307
322 322 322 323 322 322 322 321 321 317 311 311 315 314 310 307 306 306 307 308 309 309 309 309 309 309 310 309 308 311 311 309 308 307 307 307 307 307 307 308 309 310 311 311 311 310 309 309 309 309 309 307 307 307 305 308 309 307 306 304 304 304 303 304 304 304 304 304 304 305 306 306 305 304 306 308 308 308 308 307 307 307 306 307 306 306 306 306
321 322 322 322 322 322 322 322 322 316 309 309 312 312 309 306 306 306 307 309 309 309 310 309 309 309 309 309 309 311 311 310 309 307 307 307 307 307 307 307 308 309 310 310 310 310 309 310 309 309 309 307 306 305 304 307 308 304 304 304 304 304 303 304 304 304 304 304 304 306 307 307 304 305 309 310 309 308 308 307 307 308 308 308 307 306 306 306
322 322 322 323 323 322 322 322 322 316 308 307 308 308 306 305 305 307 308 310 310 310 310 310 309 309 309 309 310 311 310 310 309 307 307 307 307 307 308 308 307 308 308 309 309 309 309 310 310 309 309 308 306 305 304 305 305 304 304 305 304 304 304 304 305 304 305 305 304 305 306 307 304 305 310 311 309 309 308 308 308 308 309 308 308 307 307 307
322 323 323 323 322 322 321 322 322 315 306 305 306 306 305 305 306 308 309 310 310 310 310 310 310 309 309 309 310 311 311 310 308 307 307 307 307 307 308 308 307 308 308 308 308 309 309 310 310 309 308 307 307 306 305 304 303 303 304 305 305 305 305 305 305 304 305 306 305 304 308 311 308 307 310 310 309 309 308 309 309 309 309 308 308 308 307 307
322 322 322 323 322 322 321 321 318 310 305 305 305 305 305 305 307 309 310 311 311 310 310 310 310 309 309 310 310 310 310 309 307 307 307 307 307 307 307 308 307 307 307 308 308 309 310 309 309 309 307 307 306 306 306 303 303 304 304 306 307 307 307 306 305 305 305 306 305 305 311 315 312 309 310 309 308 309 309 309 308 308 308 308 308 307 307 307
319 319 320 322 322 321 320 317 311 306 304 305 304 305 305 307 309 310 310 312 311 311 310 310 310 310 310 310 310 309 308 308 307 307 307 308 307 307 307 307 307 307 308 308 309 309 309 309 309 308 306 306 305 305 306 305 306 306 306 307 309 309 309 306 305 306 307 307 305 306 311 315 314 312 310 309 309 308 309 309 308 307 307 307 307 307 307 307
316 315 318 319 320 318 316 312 306 304 305 305 304 305 307 309 310 310 310 311 311 311 311 310 310 310 309 310 310 309 308 308 308 307 307 308 307 307 307 307 307 308 308 308 309 309 308 308 308 307 305 305 306 307 309 308 308 307 308 310 310 309 310 308 305 305 307 307 306 308 312 315 315 313 310 309 309 308 309 309 308 308 307 307 307 307 307 307
311 312 313 315 316 314 311 307 304 305 305 304 305 307 309 310 310 310 310 310 310 312 312 311 310 310 310 311 310 309 309 309 308 307 307 308 308 307 307 307 307 307 308 308 308 308 308 308 307 305 304 306 308 310 310 309 309 309 309 312 312 311 311 310 306 304 305 306 307 309 311 314 315 311 308 308 308 307 309 310 309 309 308 307 307 307 307 307
306 306 308 308 310 309 307 305 305 305 305 305 307 309 310 310 310 310 310 310 311 312 313 312 311 310 311 311 310 310 310 309 308 307 308 308 308 308 307 307 307 307 307 308 308 308 308 307 306 307 308 309 308 309 309 309 309 310 310 311 312 311 311 311 309 305 304 306 308 309 309 312 314 312 309 308 308 308 309 311 311 310 310 309 308 308 308 307
306 306 306 306 306 306 306 306 306 305 306 307 309 310 310 311 311 311 311 310 311 312 312 312 311 311 311 310 310 311 310 309 309 308 309 309 309 309 309 308 307 307 308 308 308 308 308 308 308 311 310 310 310 309 309 309 311 312 311 311 312 310 311 312 311 308 306 307 309 310 310 312 313 313 313 311 309 309 309 310 311 311 311 311 310 309 308 308
306 306 306 306 306 306 306 306 306 306 307 309 310 311 311 310 310 311 311 311 311 313 314 312 311 312 313 311 311 311 310 310 309 309 309 310 310 309 309 309 309 309 310 310 310 309 309 309 310 311 311 311 312 312 310 310 313 316 315 313 313 313 312 312 310 306 305 308 310 311 312 313 313 314 314 313 310 308 309 308 309 310 311 312 312 311 310 309
306 306 305 305 305 305 306 306 306 307 309 310 311 311 311 311 312 312 311 311 312 313 314 312 310 311 312 311 311 311 310 310 310 309 309 311 311 310 309 310 311 311 312 314 313 308 308 311 312 312 312 312 311 309 308 308 310 314 315 314 314 314 314 313 309 305 304 308 312 311 311 311 311 312 313 313 310 308 309 308 308 309 310 311 312 312 312 310
306 306 305 306 305 305 306 306 307 309 310 311 311 311 311 311 313 313 312 311 311 312 312 311 310 311 311 311 312 311 310 310 310 310 310 311 311 311 309 312 313 311 311 310 311 308 308 311 313 310 308 307 306 304 305 307 309 312 313 314 315 314 314 312 308 306 304 308 312 310 309 311 312 313 314 313 310 310 310 310 310 310 310 310 311 311 312 311
308 307 307 307 306 306 306 307 309 310 310 311 311 311 311 311 312 312 312 312 311 310 311 310 311 311 311 311 312 312 311 310 311 311 311 311 312 312 310 313 316 314 311 310 311 311 312 312 310 304 303 304 304 303 305 308 310 312 313 314 315 314 313 311 307 305 304 309 313 310 309 312 313 313 314 313 311 311 310 310 310 309 309 310 311 311 311 311
308 309 309 309 308 308 308 309 310 310 311 311 311 311 311 310 311 311 312 312 311 310 310 310 311 311 311 311 311 312 311 310 311 311 311 311 311 312 311 314 320 317 314 316 314 313 313 312 305 301 303 305 306 304 306 309 311 312 313 314 315 313 313 313 310 305 305 307 310 309 309 312 313 313 312 310 308 308 308 308 308 308 308 309 310 311 311 311
308 308 308 309 309 309 309 310 310 310 311 311 311 311 310 311 312 312 311 311 311 311 311 311 311 311 311 311 310 311 311 310 311 311 311 312 311 312 312 312 317 316 315 317 318 316 314 307 301 302 303 305 307 307 307 311 313 313 313 314 314 312 311 312 311 308 307 306 305 308 312 314 316 315 314 310 307 308 308 307 308 308 308 308 309 311 311 310
306 307 307 309 310 310 310 310 310 310 310 310 311 310 311 312 312 311 312 312 314 313 311 311 311 311 311 311 311 311 311 311 311 312 312 312 312 312 311 309 312 315 316 315 315 316 312 303 301 304 304 305 308 309 309 312 314 314 311 310 310 309 309 310 310 310 312 312 306 307 314 316 317 318 316 312 310 311 310 309 310 309 308 308 308 310 311 311
306 307 307 308 310 311 311 310 311 310 311 310 310 311 311 312 312 310 312 316 316 313 313 313 312 311 310 311 312 310 311 312 311 311 312 312 312 311 311 309 309 313 313 311 311 311 307 301 302 305 306 307 309 310 310 309 313 314 310 306 305 307 308 309 310 312 315 315 307 305 313 316 317 319 317 313 311 312 311 311 311 310 308 308 309 310 311 311
307 307 307 309 310 310 310 310 311 311 311 311 311 312 311 311 309 307 312 315 312 310 313 313 311 312 311 310 311 311 313 313 311 311 311 312 312 310 312 312 309 310 306 307 311 309 305 303 304 305 307 309 311 312 309 306 312 314 306 303 305 306 309 308 309 312 313 312 309 307 311 314 315 317 315 310 311 313 312 311 311 310 309 308 309 310 310 310
307 307 307 309 310 311 311 310 311 310 311 312 312 312 311 311 308 308 313 313 307 309 313 312 310 311 311 310 310 310 311 311 312 312 310 311 311 310 313 314 312 311 304 308 313 310 304 306 306 306 308 310 311 310 305 304 311 311 302 303 305 305 308 307 308 312 309 310 314 310 309 313 315 316 314 310 312 314 314 313 311 311 310 308 309 310 310 310
307 307 307 308 308 310 310 310 310 310 311 312 312 312 312 311 308 309 313 310 307 310 312 311 311 311 310 311 310 310 309 310 311 312 310 311 311 311 313 310 309 310 306 308 313 308 304 306 304 305 309 309 307 303 300 303 308 306 301 304 305 304 306 306 308 311 310 312 316 311 307 312 315 316 315 312 313 315 315 314 312 311 310 309 309 309 309 309
308 308 308 307 307 308 309 309 309 309 310 310 312 313 311 309 310 312 313 310 309 311 309 310 311 310 310 311 311 309 309 310 309 309 310 310 309 309 309 307 307 311 310 308 309 307 304 304 303 304 306 305 303 300 299 301 303 304 305 307 308 306 305 306 307 309 312 314 314 308 306 310 313 316 318 316 315 316 315 313 311 310 309 308 309 309 309 309
309 309 308 308 308 308 309 308 308 308 308 309 311 311 309 311 314 313 309 309 311 310 309 311 310 311 313 313 313 311 310 309 307 309 311 310 309 309 308 309 309 311 313 312 310 307 306 306 305 303 302 301 303 303 301 300 302 304 307 309 312 311 308 310 310 310 314 315 311 307 305 308 312 315 317 316 314 313 313 313 312 310 310 309 309 309 309 309
309 309 309 309 308 308 308 308 308 307 307 309 309 309 311 312 313 314 311 309 311 311 312 313 311 312 315 313 314 314 312 310 308 310 313 311 311 311 311 313 312 312 313 313 312 310 309 308 304 302 302 301 305 308 306 304 304 306 309 311 314 314 313 314 314 312 314 314 309 306 306 309 313 315 316 315 313 311 310 312 312 312 311 309 308 309 309 309
308 308 309 309 308 308 308 308 308 307 307 308 307 309 314 315 313 314 313 311 310 308 310 312 311 312 313 313 313 311 310 311 310 309 309 309 312 312 312 311 310 313 314 312 312 313 312 309 305 305 306 302 305 310 311 310 308 308 311 313 314 314 314 315 314 311 313 313 308 305 307 312 314 314 315 314 313 310 308 307 308 310 311 308 308 309 309 309
306 307 308 308 308 307 308 308 307 308 308 306 308 311 312 314 313 310 312 313 308 306 309 311 311 311 311 312 312 309 310 311 309 310 310 310 311 312 313 311 308 311 313 312 312 313 314 313 309 308 307 303 304 307 307 308 309 309 308 309 313 314 314 315 314 313 313 313 309 306 309 314 315 314 313 311 309 307 306 306 305 307 309 308 307 308 309 309
306 306 307 307 307 307 307 306 307 308 306 306 314 316 313 315 315 312 316 316 309 308 310 307 310 313 311 311 310 308 310 311 309 309 311 311 312 312 314 315 310 310 312 313 311 310 312 312 307 303 302 302 304 304 301 305 310 309 305 309 313 312 312 313 312 312 312 313 312 310 312 315 315 314 312 308 307 307 306 306 304 305 307 307 307 307 308 309
306 306 306 307 306 307 307 306 307 307 306 309 317 317 316 319 315 312 316 313 310 313 311 309 311 313 312 311 311 309 307 308 309 309 310 311 312 312 314 314 310 309 311 312 312 310 311 311 304 301 302 300 302 302 300 305 310 308 308 312 310 306 309 312 309 307 308 313 315 313 313 314 314 315 313 308 308 308 307 306 306 306 306 306 307 307 308 308
305 306 306 306 306 306 307 306 307 306 306 311 316 316 316 315 310 311 313 308 309 311 311 312 311 311 314 313 311 311 308 308 309 310 311 311 311 312 313 311 306 306 308 309 311 312 311 311 305 302 305 301 299 301 300 301 304 309 311 310 306 305 308 311 312 311 311 314 315 312 312 313 313 314 315 313 311 310 308 308 307 307 306 307 307 308 308 308
305 306 305 306 306 306 306 306 306 306 307 311 316 316 314 310 305 306 307 305 308 312 312 313 310 309 315 314 311 310 309 310 311 311 311 311 310 311 313 311 305 303 302 303 309 310 309 312 308 301 304 303 299 302 305 303 301 306 308 304 305 311 312 311 312 313 313 314 314 312 311 311 311 313 315 317 316 313 310 308 308 308 307 308 308 308 308 308
305 305 306 306 306 305 306 306 304 306 309 312 317 315 310 310 305 302 305 306 308 312 313 313 310 308 311 312 313 311 308 310 311 310 311 311 310 309 308 309 306 302 299 301 308 308 306 310 311 303 302 303 302 305 309 308 303 303 305 304 304 309 311 311 311 311 313 313 313 313 312 312 313 314 314 316 317 314 311 309 309 309 308 308 308 308 308 308
305 306 307 307 306 305 305 304 304 309 312 311 315 313 306 306 304 301 305 306 306 309 313 314 311 310 312 311 310 310 309 310 309 310 310 309 310 310 306 306 306 303 299 300 305 307 305 308 311 306 301 304 307 307 308 310 307 306 308 308 307 307 307 309 309 308 311 313 312 312 313 314 315 315 314 315 315 314 312 311 311 311 309 309 308 308 309 309
304 307 308 306 305 304 304 306 306 308 313 311 309 310 307 305 304 302 304 305 305 306 309 312 312 311 314 312 309 309 310 309 308 309 311 309 310 311 306 302 304 303 303 304 306 307 307 308 310 308 306 308 309 303 300 303 304 306 309 310 310 309 309 311 311 308 307 310 310 311 312 314 317 316 315 314 314 312 311 311 312 312 310 309 309 309 309 309
304 309 309 305 305 304 305 310 303 299 310 312 306 306 307 304 303 303 303 303 305 304 304 309 311 311 312 311 310 309 310 310 309 309 310 310 310 311 305 299 300 301 304 307 307 304 305 307 309 310 308 306 303 298 297 297 297 301 304 305 308 309 310 312 313 310 307 306 307 307 310 314 315 313 311 311 310 308 307 307 310 311 310 309 309 309 309 309
304 308 307 305 305 305 306 311 306 303 309 306 300 301 303 302 302 303 303 303 305 305 306 309 309 309 310 309 309 310 311 311 312 310 310 310 308 306 301 298 300 301 303 307 307 304 305 308 310 311 307 302 299 297 297 295 297 302 304 302 304 307 309 310 310 309 309 308 308 308 310 315 315 309 307 306 304 304 304 305 306 308 308 308 308 308 309 308
304 305 306 305 306 305 308 312 313 313 310 303 301 303 302 300 301 303 305 304 304 305 309 310 308 307 307 304 306 310 309 311 314 311 309 309 307 302 299 299 300 301 303 306 307 306 307 309 310 311 311 308 306 305 303 300 300 305 306 302 303 305 306 307 306 307 309 310 311 311 312 314 314 309 307 306 306 306 306 306 307 307 307 307 308 308 308 308
304 305 305 305 306 307 308 310 311 314 313 308 307 307 305 303 301 301 303 303 301 303 307 308 305 305 304 301 305 308 305 307 311 309 306 307 305 299 298 300 300 301 302 303 303 304 307 309 309 311 313 313 312 311 309 307 305 305 304 302 303 304 306 309 309 309 310 310 310 311 313 314 314 311 310 309 309 309 309 308 308 307 307 307 307 308 308 307
305 307 306 305 305 306 306 305 305 310 313 311 308 306 307 307 302 299 301 302 302 301 303 304 303 303 304 303 307 310 306 304 305 305 306 307 305 300 297 299 299 300 301 301 301 302 306 307 308 310 312 313 313 310 307 307 307 307 306 305 303 303 305 308 309 309 311 309 308 311 313 314 314 312 312 311 311 312 312 311 309 309 310 309 308 309 308 307
305 308 308 305 305 305 305 304 303 305 307 308 308 307 306 306 303 300 300 301 301 301 302 302 303 305 307 305 308 311 308 304 303 305 307 306 305 301 297 298 299 299 301 301 300 302 307 308 307 308 309 310 309 307 305 307 308 308 309 308 305 303 304 307 310 310 311 310 311 313 313 313 313 313 313 313 312 312 312 311 310 310 311 310 309 309 308 307
304 305 304 304 307 308 308 306 303 303 303 303 305 305 304 307 306 305 304 299 298 301 303 305 304 307 309 308 310 311 308 307 308 308 308 306 304 302 300 299 298 299 301 300 299 301 307 309 307 305 307 308 305 303 304 306 307 307 307 308 307 305 304 307 310 310 310 311 313 313 313 313 312 312 312 312 311 310 311 310 310 310 310 309 308 308 307 307
303 304 301 302 305 305 305 305 302 303 304 304 305 305 305 309 309 306 303 300 302 301 302 307 309 307 307 307 308 311 311 311 312 311 309 307 305 304 304 304 300 298 299 300 298 299 304 309 307 303 306 308 303 300 301 303 305 306 305 306 307 306 305 307 310 310 309 311 313 313 313 313 312 311 311 311 310 309 309 309 309 309 309 308 308 307 307 307
302 304 302 303 303 301 300 301 301 304 304 302 306 306 303 307 310 305 301 304 309 305 299 307 311 305 305 306 305 310 313 313 313 311 308 309 308 305 306 308 304 298 298 300 300 299 302 308 307 303 307 308 301 297 298 300 302 305 306 305 305 305 305 305 307 308 308 309 311 311 311 310 310 311 311 310 309 308 308 308 307 308 308 308 307 306 306 307
302 303 302 304 305 302 301 299 299 304 305 302 306 307 304 307 309 306 304 304 307 307 303 306 310 305 302 303 304 309 310 309 311 309 306 307 308 307 307 307 305 303 300 300 300 300 301 304 303 303 308 309 301 297 298 299 300 304 307 307 304 304 305 305 305 306 307 309 309 308 308 309 309 311 310 309 309 308 308 308 307 307 307 307 307 306 306 306
301 302 302 304 305 303 301 300 298 303 307 305 305 305 305 306 303 303 306 304 300 303 303 302 305 306 305 304 306 308 306 304 306 306 304 304 304 304 303 303 304 305 303 300 300 300 301 304 304 303 308 308 301 297 299 301 304 307 310 312 308 305 305 304 304 305 306 307 308 308 309 310 310 311 310 308 309 308 307 307 306 306 307 307 307 307 307 307
Wind_Speed
7 7 5 3 3 4 5 5 5 4 3 4 4 3 1 1 4 6 8 10 8 7 8 7 8 8 8 8 9 10 10 7 4 4 4 5 7 8 9 11 13 13 11 9 8 9 8 8 9 8 7 6 5 7 7 6 6 5 1 3 3 2 2 2 4 3 1 2 4 6 7 6 2 5 7 6 9 11 13 16 18 18 19 18 17 16 16 15
8 7 5 4 2 2 3 3 2 2 2 4 3 2 2 2 3 5 7 8 7 4 5 6 6 7 8 8 10 10 9 7 5 5 5 6 7 8 8 10 12 13 12 10 9 9 8 8 9 9 8 5 4 6 5 3 3 2 1 3 3 1 1 1 1 1 1 3 4 5 7 8 4 3 5 5 5 7 10 14 16 20 21 18 18 18 18 17
8 7 6 3 1 1 1 1 1 1 2 2 1 0 1 0 1 3 5 7 7 2 3 5 5 7 8 8 6 7 7 6 6 8 6 6 6 7 7 9 11 12 12 11 10 9 8 7 8 7 6 5 3 5 4 1 1 1 1 4 2 2 1 1 1 1 2 2 3 3 6 8 7 5 5 4 5 6 10 11 11 16 16 13 13 13 15 15
8 7 5 3 2 1 1 2 2 2 2 1 1 2 3 2 2 3 4 7 7 3 2 3 4 6 8 7 3 2 4 4 5 7 5 4 6 6 7 9 10 10 10 10 10 10 9 8 8 7 6 3 3 5 2 1 1 2 2 2 2 2 1 3 3 2 3 2 1 3 4 6 8 9 7 4 5 7 10 11 10 9 8 8 9 8 9 11
8 6 5 3 2 2 3 3 3 3 4 4 4 4 5 4 4 4 5 7 7 4 2 3 3 5 7 6 1 2 2 2 1 4 4 3 5 7 8 10 9 9 9 8 8 9 9 8 8 8 6 2 3 3 1 0 1 2 1 2 3 1 1 2 3 2 4 4 3 4 4 4 5 9 11 8 8 6 3 6 8 8 6 6 7 7 7 8
9 7 6 5 4 4 5 5 5 6 6 6 6 6 6 7 7 7 7 7 8 5 4 4 2 3 6 6 1 2 3 2 3 6 5 3 5 7 8 10 9 9 8 7 7 7 7 8 7 7 5 2 2 1 1 3 2 2 1 2 2 2 1 1 2 2 3 4 4 3 3 4 3 6 9 13 17 13 6 6 7 8 9 8 7 8 8 8
10 9 8 7 6 6 7 7 7 7 7 8 8 7 7 8 8 8 8 7 8 7 5 6 4 2 4 5 3 1 3 5 7 9 6 3 4 6 8 9 9 9 8 7 6 6 7 7 7 7 4 2 2 2 1 3 2 3 0 3 3 2 2 2 2 2 3 3 3 2 4 3 4 5 5 15 24 20 16 15 12 13 13 12 10 9 9 8
12 11 10 10 9 8 9 9 8 7 8 9 8 8 8 9 9 9 8 8 8 8 6 6 6 4 4 5 5 4 4 5 7 8 5 2 4 5 7 8 9 9 9 8 7 7 7 7 8 7 3 1 3 3 3 2 2 2 1 4 4 2 2 2 1 1 1 1 2 3 5 5 6 7 9 19 25 20 21 21 19 19 18 17 15 13 12 11
15 14 13 14 13 12 11 10 8 8 8 8 7 7 9 10 9 9 8 8 8 7 6 5 6 7 6 6 6 5 3 5 7 8 5 1 3 4 6 8 9 10 10 9 9 8 7 7 8 8 3 3 5 4 3 3 2 0 2 5 4 3 2 1 1 1 1 1 2 4 6 5 7 8 12 21 21 18 19 18 17 17 17 18 18 18 17 14
18 17 17 17 16 15 13 11 10 9 8 7 7 9 11 11 9 9 8 7 7 6 5 4 6 8 7 7 5 3 4 6 7 7 5 2 2 4 5 7 8 10 10 10 10 10 9 6 6 7 3 5 7 3 2 3 0 4 6 6 4 2 2 1 1 1 3 3 3 4 6 5 3 3 7 9 8 8 8 10 12 11 11 13 16 19 20 18
18 17 17 17 16 16 14 12 10 9 9 9 9 11 11 11 9 8 7 6 6 5 4 4 5 7 7 7 5 4 6 7 6 5 4 2 1 2 4 6 7 9 9 9 10 10 9 5 4 5 2 4 7 4 3 3 4 8 9 5 2 1 2 1 1 1 3 2 2 4 8 7 3 5 10 9 7 6 5 8 11 12 13 11 11 15 18 19
16 16 16 16 16 16 13 11 11 10 11 10 10 11 10 10 9 7 5 4 5 4 2 2 3 5 6 6 7 7 8 6 4 4 3 2 2 1 3 5 6 7 8 8 9 10 7 5 4 4 3 6 6 3 5 7 7 8 5 1 1 2 3 1 1 2 3 1 1 3 8 6 8 11 13 11 11 11 10 11 13 14 11 8 9 11 14 16
14 14 16 17 16 14 12 10 11 11 11 10 10 10 10 9 7 5 3 3 4 2 2 2 2 3 3 4 6 7 7 5 4 3 1 2 2 1 2 5 6 6 8 7 8 8 6 5 4 4 8 8 4 4 7 8 5 4 1 2 1 3 2 2 2 3 2 1 1 2 5 3 8 13 13 9 9 10 10 11 11 10 8 8 9 10 12 14
10 11 13 15 14 13 11 11 11 11 10 9 9 10 9 7 5 4 2 1 1 1 1 2 1 2 2 3 4 5 5 3 3 1 0 1 1 1 3 6 7 7 7 7 8 8 7 5 4 6 9 8 8 9 7 4 2 1 1 2 1 2 1 3 2 3 2 2 1 1 5 4 3 8 12 11 10 8 7 8 8 9 8 8 10 10 12 12
9 8 9 10 12 12 12 11 10 9 9 9 9 9 6 5 4 4 3 1 2 2 2 3 3 3 2 3 4 4 4 3 2 2 1 1 2 3 5 6 8 8 8 8 8 9 8 6 5 7 9 10 11 8 3 1 1 0 2 2 1 2 1 3 2 3 1 0 1 3 5 6 4 1 8 11 8 6 5 6 7 8 8 9 10 10 11 12
10 10 10 11 12 12 11 10 9 9 8 8 8 6 5 4 4 4 3 3 4 3 2 3 4 3 2 2 3 4 3 3 3 3 2 2 3 5 7 7 8 9 9 9 9 10 9 7 8 10 9 8 6 2 1 2 2 1 2 2 1 2 1 1 3 2 2 1 3 6 4 6 3 2 4 9 9 6 5 6 7 8 9 10 10 11 11 12
11 11 12 13 13 12 12 10 9 8 8 7 6 5 5 4 3 4 5 4 3 3 2 3 3 4 3 3 4 4 3 3 4 4 3 4 5 6 8 8 9 10 11 11 10 9 7 6 8 7 5 3 1 0 2 3 4 2 1 2 1 2 2 1 2 1 2 2 4 5 6 11 9 3 5 9 10 8 9 11 13 14 14 13 12 12 12 13
11 11 12 13 13 13 12 10 9 8 6 6 5 3 2 2 3 4 5 5 3 1 2 3 3 3 3 5 5 4 4 4 4 4 4 4 5 6 7 8 10 11 11 10 7 5 5 5 4 2 2 2 1 3 4 2 2 2 3 3 1 2 4 3 1 1 2 2 5 6 8 15 15 13 13 13 14 15 15 16 19 21 21 20 18 16 14 14
10 10 11 12 12 11 10 9 8 6 6 6 4 2 1 1 2 3 3 4 4 2 1 3 5 3 1 4 5 4 4 3 4 4 4 4 5 5 6 8 9 8 7 4 3 4 4 4 3 2 2 2 1 2 2 2 3 0 1 2 2 3 3 2 1 2 3 3 7 9 10 13 15 14 15 13 14 16 15 15 19 22 23 24 25 23 20 17
7 7 7 7 7 7 8 8 7 6 7 6 5 3 1 2 1 1 2 3 4 4 2 3 5 3 0 3 5 5 4 3 3 5 4 3 4 6 7 7 6 4 3 1 1 3 2 2 2 1 1 1 2 1 2 2 2 0 1 1 2 3 3 1 2 2 1 4 6 6 8 13 15 16 15 10 9 13 14 14 17 21 23 24 26 26 24 21
4 3 3 4 5 6 7 7 7 7 7 6 6 3 2 3 1 1 3 3 3 5 3 4 3 2 2 2 4 6 5 3 3 4 4 4 6 7 6 5 2 1 2 2 1 2 1 2 1 2 3 3 3 2 1 1 1 0 1 2 2 3 3 1 2 1 1 3 3 1 7 14 15 16 15 10 9 11 14 13 14 16 19 22 24 24 24 23
4 4 4 4 5 6 7 7 7 8 8 7 7 6 4 4 5 3 4 3 4 5 4 4 3 3 3 3 4 6 5 3 2 4 4 5 7 5 4 3 1 1 2 1 1 1 1 2 2 3 4 4 4 1 2 1 0 0 1 2 2 2 3 0 2 1 0 3 3 4 8 15 16 14 13 11 10 11 11 12 11 11 14 18 21 21 22 24
4 5 5 5 5 6 7 7 7 8 9 8 8 7 5 7 7 6 5 3 4 4 3 3 3 3 3 3 4 5 5 3 2 3 3 6 8 4 4 4 2 1 1 0 2 1 2 1 3 4 3 3 2 0 2 2 1 1 1 2 2 0 2 2 2 0 1 2 5 7 8 12 12 9 6 5 6 7 9 12 12 11 12 14 18 21 23 25
4 4 4 5 5 6 7 7 8 9 9 9 8 6 6 5 3 6 6 3 2 2 3 3 3 3 3 3 3 3 5 4 2 1 1 6 9 4 3 4 2 2 1 1 1 1 0 1 2 3 2 1 1 2 3 3 1 1 2 2 2 1 1 2 2 3 2 2 3 8 8 6 4 3 2 1 1 4 6 9 11 12 12 13 16 20 23 25
2 2 3 4 5 6 6 7 8 9 9 10 9 6 4 4 6 5 4 2 1 1 1 2 2 2 3 2 2 3 4 4 3 2 1 5 8 5 4 4 1 2 1 1 2 1 2 1 3 3 2 1 2 2 3 3 1 2 3 2 1 1 1 3 4 5 3 2 1 4 6 3 0 3 3 1 2 4 3 6 8 10 12 14 16 19 22 23
2 2 3 5 7 8 8 8 9 10 10 10 8 6 7 7 4 3 2 1 0 0 0 1 1 1 1 2 1 4 3 2 3 3 2 5 6 5 4 3 2 2 3 2 1 1 2 2 2 1 2 3 2 3 2 2 2 1 1 1 1 1 0 2 3 3 3 2 1 1 4 5 3 4 2 1 3 5 4 5 7 8 12 16 17 19 21 23
2 2 2 5 7 9 9 7 7 9 8 8 7 8 9 6 1 2 1 1 1 0 0 1 1 1 1 2 2 3 0 1 3 4 3 3 4 5 3 1 1 3 3 3 1 1 3 3 2 1 2 3 2 2 2 2 3 1 1 1 2 1 0 0 1 2 2 3 1 0 2 5 6 3 1 2 5 6 6 7 7 8 11 15 17 18 20 23
3 2 2 4 6 8 8 7 6 6 5 6 9 11 9 3 0 1 0 1 0 1 1 1 2 1 1 2 2 2 1 2 2 1 3 3 3 4 2 0 3 4 2 2 1 0 1 3 4 3 2 3 1 1 2 1 3 1 2 1 1 1 1 1 2 2 1 3 2 1 2 4 6 3 1 1 4 8 9 9 8 8 10 14 17 18 19 22
5 4 4 4 5 6 8 7 6 5 4 7 11 11 7 1 1 0 1 0 0 1 1 1 3 1 2 2 2 2 2 2 1 1 1 2 2 2 2 5 7 7 4 2 1 1 1 0 2 2 2 1 2 3 2 2 2 2 4 2 3 2 2 1 2 1 1 3 2 2 2 4 5 3 1 0 3 7 7 6 7 8 11 14 17 18 19 22
6 6 5 4 4 6 7 7 6 5 5 7 10 9 5 1 0 1 0 1 0 1 0 1 3 2 3 1 1 3 1 1 3 2 3 3 4 4 8 9 7 5 4 5 4 2 1 2 2 0 1 1 4 3 2 1 1 3 5 2 2 2 1 1 1 1 3 3 1 2 1 3 4 4 2 2 2 3 3 4 6 7 10 15 19 19 20 23
8 7 6 5 5 6 6 6 5 5 5 7 9 8 4 1 1 1 1 0 1 0 1 0 1 3 2 2 0 2 1 2 4 2 3 3 4 5 7 5 3 2 2 2 3 2 0 1 1 1 1 2 3 2 2 1 1 1 2 1 1 1 1 2 2 2 4 2 2 2 1 2 4 4 2 2 2 3 4 5 8 10 12 16 21 22 23 24
8 8 7 6 6 6 6 5 5 5 6 7 8 7 4 0 1 1 1 1 1 0 0 0 1 2 2 0 1 1 1 2 4 3 2 1 1 3 2 1 2 1 2 2 2 0 1 1 1 1 2 3 2 2 2 1 2 2 1 1 3 2 1 2 2 2 3 0 3 1 1 3 7 8 7 7 5 5 5 6 7 10 13 18 23 24 25 25
8 8 8 8 7 7 6 5 5 7 7 8 9 6 2 1 2 2 1 1 1 1 1 1 1 1 1 0 1 1 1 0 2 2 1 0 1 1 0 0 1 1 1 2 2 2 1 1 2 2 2 3 4 2 1 1 3 2 1 1 2 2 1 2 1 1 3 1 2 0 1 4 6 7 8 9 5 2 3 7 9 8 13 19 25 26 26 26
8 8 9 8 7 7 7 6 7 8 9 10 8 3 2 1 2 1 1 2 1 1 1 1 1 0 1 0 0 1 2 1 1 0 1 1 1 2 2 2 2 0 1 1 2 3 3 2 3 3 1 3 4 2 1 1 2 2 1 1 2 2 2 3 2 2 3 1 1 1 2 4 3 1 1 3 4 5 6 8 9 10 13 19 23 25 25 26
7 7 8 8 7 7 7 7 8 9 11 11 4 2 1 3 2 1 2 2 1 1 1 1 0 1 0 1 1 1 1 1 1 1 1 1 2 2 2 3 4 2 2 3 2 1 3 2 2 1 1 2 2 0 0 2 1 2 0 1 2 1 1 1 1 1 2 3 2 2 3 4 4 4 1 1 4 5 5 4 6 9 14 18 21 23 25 26
7 7 7 6 6 6 6 8 9 10 13 10 2 1 3 2 1 2 2 2 2 3 3 1 1 2 1 1 0 0 0 0 0 1 2 1 2 3 1 1 3 4 2 1 2 2 2 1 2 1 1 1 1 1 1 3 0 2 2 1 0 1 1 1 1 1 0 3 2 2 4 4 4 5 1 1 3 3 2 4 6 8 13 18 20 24 26 26
6 6 5 5 5 5 7 8 10 13 13 7 1 1 3 1 1 2 2 3 2 2 3 2 1 1 2 1 1 1 1 1 1 1 2 1 2 3 3 1 2 3 1 1 1 1 1 0 2 0 1 2 1 1 1 2 1 1 1 1 1 1 1 0 1 1 1 4 2 1 5 5 3 4 1 2 2 4 4 5 6 8 12 15 20 25 27 26
5 5 4 5 5 5 7 8 11 13 9 3 1 3 2 1 1 2 3 3 2 2 2 2 0 1 1 2 1 2 1 2 2 1 2 2 2 3 3 2 2 1 1 1 1 1 1 2 2 0 0 2 1 2 2 1 0 2 1 1 0 2 1 1 1 2 2 3 3 2 4 4 3 4 3 1 3 5 6 6 7 10 13 14 19 25 27 27
6 5 4 5 5 6 7 9 12 12 6 1 2 2 0 1 1 2 5 3 1 2 1 2 0 1 1 2 0 2 2 1 2 1 2 1 1 1 2 1 2 1 1 1 1 1 0 2 1 1 1 1 1 3 3 3 3 1 1 1 1 2 2 0 0 1 2 3 3 2 2 3 5 4 4 4 4 5 8 8 9 13 16 18 22 27 29 29
7 4 3 5 6 7 9 11 11 8 2 1 2 1 1 1 1 3 5 3 1 2 1 1 1 1 2 2 1 1 1 1 2 1 1 1 1 1 1 0 2 3 1 1 2 1 1 1 1 1 1 2 3 3 2 2 3 3 3 3 3 1 1 1 1 0 1 3 2 2 4 5 3 3 5 6 4 4 8 9 10 13 17 22 27 31 31 32
7 3 2 5 7 8 12 11 6 2 1 0 1 1 0 1 1 3 5 4 1 1 1 1 1 2 2 2 2 2 2 1 2 2 2 2 2 1 1 1 2 4 3 2 2 2 1 1 1 2 3 4 1 1 2 2 1 1 2 3 4 3 2 3 3 1 0 2 2 1 5 7 2 2 4 5 2 2 5 7 8 12 18 25 31 32 32 33
7 2 1 6 8 11 13 6 3 1 1 1 1 1 1 1 1 2 4 4 1 1 0 0 0 1 2 1 0 2 3 2 2 2 3 3 2 1 2 3 3 4 3 1 0 1 1 0 1 2 2 1 1 2 1 2 2 1 2 1 1 2 3 4 3 2 2 1 0 1 4 6 1 2 2 3 2 4 5 7 8 11 17 25 30 31 32 33
6 3 2 6 9 13 10 2 1 1 1 0 1 2 2 1 2 2 3 4 2 1 1 1 1 2 2 1 2 3 4 3 4 3 2 2 1 0 3 5 4 4 3 0 1 2 2 1 2 2 0 1 1 1 1 1 1 2 3 2 2 1 1 1 1 1 2 3 3 2 4 6 1 1 2 3 5 8 11 12 12 13 17 23 28 30 32 33
5 4 4 5 10 14 8 1 2 2 1 1 1 0 1 2 3 3 2 4 4 2 2 1 2 2 1 1 2 3 3 3 3 2 1 2 1 1 3 5 4 3 3 1 1 3 3 2 2 2 2 2 2 2 2 2 2 4 2 2 3 1 3 2 1 1 2 5 5 3 7 7 0 1 2 3 4 7 11 14 15 17 19 22 25 29 31 33
5 5 3 4 10 13 7 2 2 2 2 1 1 1 2 2 5 5 3 3 4 3 2 1 1 2 2 2 1 0 1 1 1 1 0 1 2 1 2 4 4 3 2 1 2 3 2 1 3 3 4 5 4 1 1 2 3 3 2 3 5 5 5 3 2 2 4 4 5 6 9 6 0 1 3 4 5 6 9 12 15 17 19 20 24 28 30 33
5 3 2 3 8 10 6 3 2 2 3 3 1 1 3 2 2 5 4 3 4 4 2 1 2 3 2 2 1 2 2 1 1 0 2 3 1 1 2 3 3 3 2 2 4 3 0 1 4 6 7 6 2 1 1 1 3 3 3 5 7 7 6 3 2 4 5 4 4 11 10 8 11 10 8 7 6 5 6 8 11 16 18 18 21 26 29 33
5 3 3 3 4 5 4 4 5 3 2 4 2 1 3 2 0 2 5 4 4 5 3 1 2 3 3 4 3 3 2 0 1 1 3 3 1 1 2 2 2 3 2 3 4 3 1 2 5 8 10 7 1 1 2 2 3 4 4 6 8 9 8 8 8 6 5 5 8 10 7 9 18 17 12 8 7 6 6 7 12 17 18 18 20 23 27 31
4 3 5 5 3 3 2 5 9 6 2 2 2 1 2 3 1 3 5 3 2 6 5 2 4 6 5 5 4 3 3 1 2 3 2 2 2 1 1 2 2 3 3 2 3 2 1 3 3 3 6 6 1 1 2 3 3 3 5 8 9 11 12 13 14 10 8 9 14 6 6 10 17 19 14 5 5 7 10 12 17 21 21 21 20 21 25 29
4 3 5 7 4 3 3 5 9 9 4 2 2 2 4 5 5 3 2 2 1 5 6 4 6 8 7 4 3 3 4 3 3 4 3 2 2 2 1 2 2 2 2 2 2 1 2 3 1 1 5 5 1 1 2 4 4 4 9 13 10 11 14 15 14 12 11 13 17 11 7 12 17 20 15 4 3 10 15 17 21 25 27 25 22 22 25 28
6 3 5 7 3 2 5 6 8 7 3 2 2 3 4 6 7 3 3 6 4 2 6 6 5 5 6 5 5 4 6 5 1 2 5 4 1 3 3 2 3 3 2 2 1 1 3 1 2 2 4 4 1 2 1 3 4 6 12 14 10 9 12 14 12 9 9 14 16 12 10 13 19 20 14 11 14 15 15 18 22 27 29 27 25 26 28 28
11 7 6 5 2 4 5 3 4 3 1 3 4 3 4 6 8 5 4 8 7 5 8 8 3 4 2 4 7 9 9 7 2 1 6 5 2 3 4 3 6 6 3 3 2 2 3 2 2 2 3 3 1 2 2 2 2 6 14 15 13 11 11 12 10 9 13 14 10 5 6 13 18 11 5 9 12 10 12 16 19 24 27 26 27 29 30 31
13 11 10 6 2 4 5 2 2 2 3 5 6 5 4 5 7 8 4 6 7 7 9 10 7 5 1 4 10 13 13 9 3 2 5 5 3 3 4 5 7 6 5 5 3 1 3 3 2 2 3 3 1 1 1 1 1 5 10 11 14 14 12 9 7 11 16 13 7 7 10 15 13 3 1 7 7 6 9 13 16 22 24 24 26 29 29 31
Wind_Direction
187 186 192 168 151 153 149 152 159 152 148 159 123 111 219 269 278 294 302 295 301 308 297 279 267 268 268 273 277 284 286 280 312 350 324 284 260 247 232 217 208 201 193 186 183 178 170 175 178 176 175 169 166 159 151 145 150 157 180 227 222 209 197 189 187 189 340 61 136 166 187 197 196 199 220 247 235 235 247 246 245 244 247 250 251 252 254 259
210 213 205 182 157 141 141 155 180 195 167 166 141 129 212 221 267 283 294 298 304 302 281 274 278 290 292 284 270 272 273 261 273 301 302 289 264 242 224 209 203 202 199 193 190 187 180 179 176 179 183 176 166 161 155 137 141 134 132 232 228 189 99 97 141 200 192 78 114 161 188 205 215 179 206 241 227 223 245 251 247 250 254 256 255 253 253 255
213 212 196 176 141 109 84 44 7 255 186 158 141 274 269 12 298 296 306 306 311 308 271 283 305 318 319 308 284 264 253 247 265 277 278 270 249 226 205 198 197 198 201 200 198 198 198 194 182 186 193 184 178 174 171 152 142 112 203 235 237 59 44 154 204 245 197 113 93 152 189 211 224 200 201 246 250 230 239 244 235 245 255 253 251 249 247 245
199 196 188 174 161 179 328 329 324 273 235 208 286 310 321 334 298 313 320 312 319 325 260 289 327 341 344 341 330 209 226 245 262 265 268 257 233 213 195 188 189 193 198 201 202 206 210 209 200 199 199 180 168 177 186 278 183 158 215 263 43 56 355 177 202 227 211 215 130 151 181 216 227 218 216 240 266 242 237 244 231 234 241 231 238 240 234 229
192 191 198 201 204 258 286 299 306 287 270 258 262 291 311 307 303 318 319 317 325 322 249 267 329 355 3 1 11 167 219 241 254 270 281 262 227 209 194 188 188 189 191 195 198 205 209 210 206 204 204 167 155 179 190 221 170 161 182 15 66 119 308 172 203 234 209 204 171 164 187 227 224 223 226 221 242 249 232 232 211 208 214 215 231 229 224 217
200 202 216 225 229 253 271 291 299 292 289 281 273 283 304 309 310 316 318 320 322 312 261 250 282 349 1 6 6 206 235 273 309 302 302 262 220 206 197 192 194 192 191 191 188 194 197 196 196 193 185 132 167 196 121 167 192 230 150 72 123 143 307 226 214 232 186 182 181 179 225 245 234 243 239 228 236 243 237 226 205 213 230 238 239 227 224 218
216 221 232 239 241 254 272 285 289 286 289 292 285 280 294 308 310 312 319 319 315 308 280 256 252 294 332 346 351 295 269 283 298 303 303 254 211 202 200 199 200 202 198 193 190 192 186 186 190 179 155 110 190 182 116 156 190 265 186 123 155 163 266 251 208 204 154 179 203 225 260 242 241 266 264 247 248 248 248 249 244 242 247 250 244 230 225 220
228 233 239 246 253 260 275 283 285 285 290 294 285 275 292 309 310 311 316 313 307 304 295 270 247 248 283 309 323 315 287 282 295 304 304 247 201 201 203 204 204 206 203 201 203 199 186 187 189 178 156 136 188 164 140 157 184 261 201 140 151 178 239 221 175 186 121 243 260 257 265 258 258 273 275 265 264 262 255 252 252 251 252 252 247 239 232 226
235 241 245 254 260 261 273 283 282 288 297 298 281 278 301 310 306 308 309 306 304 299 296 275 244 241 258 285 305 306 283 279 293 300 304 266 200 204 206 208 207 205 205 206 206 200 195 196 196 198 204 171 165 143 151 192 215 179 130 137 150 187 220 220 186 26 15 311 310 270 267 270 272 279 270 267 269 268 259 250 249 248 250 254 250 245 239 232
243 247 251 257 259 259 270 280 279 289 299 296 283 288 302 304 300 300 299 298 299 298 294 268 237 238 252 272 288 296 295 290 289 294 303 292 209 207 210 213 209 206 205 207 205 198 196 200 204 204 199 157 152 119 153 209 140 112 121 122 123 171 204 274 226 354 332 291 276 267 278 276 276 284 261 264 266 259 249 229 229 237 256 263 251 243 238 233
242 244 248 252 254 258 267 273 276 286 292 290 286 290 297 295 292 291 292 292 294 303 303 270 235 233 245 259 257 273 294 289 284 291 303 317 253 220 222 217 208 205 203 206 205 197 197 199 191 190 183 157 147 94 100 121 98 115 121 122 101 184 214 307 253 358 341 283 246 266 279 265 196 229 245 251 252 239 226 219 230 253 270 266 247 234 229 228
237 238 239 243 250 257 261 267 274 281 285 285 286 291 290 285 283 282 276 279 287 298 285 247 224 220 230 247 247 259 274 270 270 286 302 339 316 259 227 211 200 201 198 203 200 189 189 186 191 194 150 151 151 108 117 110 106 121 119 168 195 214 205 31 20 356 352 274 279 289 276 245 188 222 242 245 244 242 244 242 246 256 258 244 230 220 218 219
243 239 238 242 246 248 252 265 274 277 280 282 286 288 282 277 276 266 249 267 281 271 218 192 189 199 208 244 249 251 252 246 252 271 301 354 337 295 189 184 183 185 185 191 187 178 176 175 194 174 140 140 137 124 122 99 102 131 122 271 238 217 210 39 25 337 323 239 325 304 279 244 188 221 234 235 240 242 245 245 244 236 224 219 216 210 211 213
248 243 240 240 238 240 255 271 272 273 276 280 286 283 276 271 261 231 203 257 276 238 229 230 236 223 225 255 256 245 230 222 228 215 64 34 34 75 135 153 158 162 169 170 166 161 154 157 168 143 131 132 127 123 115 82 80 121 267 233 262 251 187 67 33 330 276 180 41 257 258 271 210 211 219 231 241 237 238 235 229 215 205 211 209 209 211 211
255 257 249 242 239 248 263 268 266 268 273 280 282 276 266 253 231 207 195 317 346 352 295 263 258 248 252 261 248 234 215 204 199 165 118 77 68 96 124 138 145 150 155 153 152 145 136 138 135 113 108 121 129 127 106 72 114 32 259 203 159 254 202 94 69 1 321 179 304 230 255 278 286 207 206 224 227 217 236 233 223 216 210 212 209 211 211 213
261 262 256 250 249 255 260 259 261 265 272 277 272 258 243 234 221 211 227 303 331 336 291 249 248 242 256 257 223 218 205 187 178 167 137 92 89 107 115 126 137 143 146 142 142 137 132 127 113 106 108 123 131 121 129 180 206 195 263 245 163 222 252 141 135 48 359 323 236 224 264 289 294 59 198 214 207 211 256 252 237 230 222 218 214 213 210 212
257 256 255 252 249 252 252 253 259 264 268 264 248 236 235 241 237 234 250 268 292 316 266 225 221 225 247 242 216 209 198 184 171 161 140 112 109 113 114 124 133 136 136 133 132 127 119 115 113 109 103 108 89 109 180 228 234 186 227 256 234 223 250 260 157 89 345 260 227 216 243 265 263 254 223 210 212 242 270 266 260 254 242 232 223 219 215 211
258 257 257 256 253 250 248 248 254 257 252 237 226 224 241 259 248 245 254 243 242 292 250 207 185 203 237 217 201 198 193 184 165 156 143 131 134 127 119 127 132 130 129 123 116 106 92 100 119 123 105 122 153 194 207 252 259 194 204 223 246 221 236 272 213 46 349 243 240 235 239 260 264 260 249 232 239 257 264 263 262 258 249 241 233 228 222 216
263 261 256 256 250 243 240 238 241 236 219 209 199 178 154 184 206 237 252 227 222 225 210 195 194 212 239 186 183 184 181 172 165 161 154 150 158 155 138 136 135 129 131 121 78 65 75 100 130 172 176 175 175 217 246 329 339 281 194 233 261 238 241 264 92 42 1 272 250 245 249 267 271 268 261 244 243 254 254 254 257 254 248 240 236 232 226 222
254 250 242 239 229 221 221 219 217 205 195 194 180 163 160 170 172 222 198 203 213 209 194 185 197 219 208 168 172 167 159 149 154 166 175 174 164 162 154 146 136 113 102 92 44 48 49 161 181 189 152 99 89 54 329 336 328 2 126 214 237 259 266 124 92 69 28 282 256 240 264 274 270 270 268 247 232 246 245 242 247 250 247 239 234 232 226 222
212 208 198 188 186 194 198 196 193 186 186 189 185 191 217 207 230 156 150 134 156 174 169 159 163 145 115 145 169 164 150 133 145 175 187 186 171 164 162 152 134 91 49 11 47 52 14 214 190 64 71 66 81 87 330 301 310 12 179 235 223 243 261 102 80 92 87 298 268 247 288 276 267 267 267 247 222 240 242 233 237 242 244 239 231 227 222 216
161 155 151 161 174 182 185 183 181 182 186 193 203 219 239 254 281 249 187 134 132 141 137 145 134 111 107 108 152 165 163 140 139 178 188 185 179 178 176 153 82 82 49 20 139 96 235 204 89 79 98 89 86 88 279 257 260 256 173 248 248 239 271 227 103 115 154 292 296 343 309 282 275 272 270 257 237 242 240 230 232 234 237 235 224 215 209 205
147 143 141 150 161 172 179 179 179 183 189 200 212 226 259 284 281 235 199 146 131 134 126 137 120 108 94 83 130 165 180 165 118 170 191 191 186 186 169 140 66 109 104 345 189 172 214 148 87 105 115 99 101 171 243 198 170 233 207 247 256 43 293 250 101 93 213 260 295 308 295 278 278 273 266 257 242 248 241 232 236 235 230 222 212 203 197 197
141 142 148 151 155 170 179 183 189 188 194 206 216 235 275 280 230 185 176 132 128 151 131 125 110 100 81 85 114 139 158 137 74 124 198 187 181 173 136 118 101 143 102 344 182 149 85 42 95 125 104 52 170 170 210 219 196 215 225 247 262 116 230 261 344 319 246 180 281 297 283 260 275 280 255 155 220 257 241 237 239 232 220 204 197 194 193 195
128 145 166 164 164 171 177 190 199 196 203 215 226 248 248 187 153 161 165 113 136 179 128 113 94 85 79 85 102 114 126 104 67 63 116 170 171 155 113 107 130 164 159 172 154 116 66 101 151 141 124 217 213 201 209 232 253 221 214 234 322 102 205 280 319 317 271 192 149 320 298 272 109 269 252 146 237 246 211 226 230 217 210 198 188 189 192 195
130 151 176 182 185 184 187 203 210 210 221 231 236 232 194 175 166 193 180 98 211 247 26 161 121 74 17 13 110 132 124 85 64 58 92 148 166 163 129 96 55 109 152 151 107 84 94 114 155 147 177 192 230 246 189 190 257 254 173 133 120 134 164 302 318 303 281 287 86 340 294 285 287 258 233 28 284 253 217 223 215 197 203 199 190 190 192 193
156 162 181 191 193 191 194 206 208 212 229 234 216 187 174 173 185 220 198 47 238 333 85 182 183 223 336 12 130 149 178 166 105 59 74 127 167 175 158 122 81 93 139 160 128 112 114 130 161 138 180 195 228 241 150 174 259 293 109 145 145 153 178 32 301 262 288 320 281 96 315 279 281 278 97 4 289 257 234 220 205 191 200 199 192 192 192 192
175 166 171 179 186 191 194 197 195 200 214 203 185 171 166 167 307 246 231 64 241 58 103 154 143 148 59 52 116 138 107 143 143 49 64 80 135 173 196 154 129 97 103 210 229 50 101 169 183 156 173 208 217 12 79 194 279 51 120 142 121 103 88 123 260 243 284 305 236 120 11 266 263 269 97 19 278 255 237 214 201 192 193 195 192 191 193 192
190 181 173 170 178 186 186 184 182 179 173 174 178 176 175 207 314 287 98 193 234 96 99 151 155 122 11 46 89 85 108 107 35 16 73 63 82 153 127 111 120 105 72 12 41 88 24 188 173 163 213 226 100 48 22 260 297 119 139 112 96 96 80 124 273 239 197 266 234 113 356 274 269 273 183 101 267 254 237 207 195 190 190 193 189 188 191 190
204 195 184 180 180 181 180 177 174 173 167 170 180 186 188 217 37 116 76 277 179 124 2 176 197 299 339 179 72 33 78 67 32 62 103 79 64 97 109 105 108 106 77 45 59 82 44 57 79 120 279 91 106 83 29 346 48 138 158 153 128 135 96 179 265 261 228 244 184 91 327 282 285 282 231 205 248 257 233 199 192 193 195 193 188 186 187 187
211 207 200 195 186 185 189 189 189 186 176 174 180 183 177 126 92 139 220 243 104 82 347 70 261 332 12 158 59 20 55 29 11 42 100 82 73 106 115 108 108 115 114 85 72 58 165 148 87 61 123 123 129 119 67 70 184 202 203 245 257 191 174 202 181 202 244 236 95 83 314 266 251 256 239 198 216 236 236 219 198 191 192 191 188 187 186 186
213 213 212 208 199 197 199 202 202 190 181 178 176 176 170 188 262 207 269 331 41 292 305 68 322 9 39 85 32 10 1 16 12 28 82 93 116 143 153 203 166 156 226 187 133 106 196 159 57 47 180 203 208 166 135 156 210 247 236 227 268 269 220 240 205 199 251 266 81 97 278 257 249 254 260 254 243 232 236 252 230 194 184 186 187 187 187 186
212 214 216 216 212 211 209 211 204 190 183 174 171 170 125 52 229 192 274 317 6 356 51 59 17 31 28 179 120 7 268 308 7 26 88 342 237 180 194 256 164 267 268 149 144 183 192 133 157 192 206 209 221 214 189 190 178 200 230 247 268 288 293 263 252 267 277 58 91 112 272 264 264 266 258 258 275 290 255 262 254 214 187 186 186 187 188 188
208 213 216 217 216 216 216 213 202 191 180 168 164 148 70 251 232 172 243 253 287 1 40 54 52 78 49 116 198 260 218 222 9 32 141 98 196 215 211 194 198 237 94 146 194 187 219 240 176 184 151 165 207 257 338 309 166 171 356 332 267 267 277 272 277 281 297 344 116 163 246 244 258 324 224 261 315 312 282 262 243 215 193 187 185 185 187 188
206 210 213 216 217 217 213 204 195 185 175 166 143 72 150 232 235 179 228 229 188 141 92 22 82 146 64 348 336 314 222 218 65 147 179 176 196 208 197 184 194 192 155 185 186 144 247 271 89 71 53 146 201 172 320 255 185 140 68 282 251 279 294 283 357 345 335 312 245 204 244 243 262 285 255 277 282 267 267 247 220 204 189 184 183 184 187 189
209 209 210 211 212 212 205 194 186 178 174 165 105 69 202 243 215 178 180 127 136 150 141 158 201 180 234 261 161 59 285 298 123 198 207 215 227 214 199 179 183 193 193 192 178 161 256 290 89 92 133 133 314 44 234 269 234 148 191 205 217 348 356 133 114 82 142 267 250 201 261 271 290 286 286 65 256 218 181 189 194 191 182 182 185 186 187 189
215 211 211 206 204 200 193 186 178 177 175 163 116 210 212 245 203 186 154 114 126 135 142 181 203 198 227 232 193 161 184 237 212 221 198 201 229 193 185 218 173 185 243 282 226 198 278 161 131 187 142 116 346 314 229 278 305 219 209 96 88 267 307 7 260 237 200 255 257 197 266 288 318 296 337 55 234 215 194 183 182 186 186 189 192 190 189 191
213 211 213 208 204 190 179 177 175 175 170 146 252 243 212 193 188 166 157 139 124 120 161 207 204 5 226 214 198 137 159 202 159 191 219 200 219 176 159 171 162 175 246 207 249 295 265 227 147 76 333 99 37 262 220 168 239 277 302 20 322 238 218 148 242 264 256 273 277 255 275 275 229 243 286 287 226 217 201 183 188 196 196 199 197 193 192 192
198 198 211 210 200 181 169 169 170 170 163 141 228 250 233 205 226 173 171 166 148 157 184 216 305 8 188 178 164 145 175 205 145 175 232 197 210 177 139 148 162 168 161 160 245 333 208 251 198 126 317 14 173 227 216 163 153 222 259 223 255 293 295 228 138 290 269 279 292 300 305 258 214 214 247 252 241 214 192 189 202 204 200 201 199 196 195 195
188 190 218 204 188 172 163 161 162 165 160 154 203 228 333 252 224 184 180 174 171 182 184 186 168 193 197 200 275 183 158 226 177 191 243 207 237 209 114 85 146 153 179 207 267 288 120 245 238 130 258 256 206 203 230 175 150 182 202 187 181 186 323 266 223 64 275 269 269 282 285 262 218 182 218 238 256 219 201 202 208 204 202 204 203 201 200 199
193 205 236 192 177 167 161 153 142 139 131 154 197 211 261 209 182 180 187 184 188 212 173 143 161 180 178 189 240 186 158 195 201 218 242 205 222 262 126 149 144 147 162 175 227 231 172 201 212 151 197 227 202 57 350 344 3 221 210 198 192 173 154 226 231 140 345 272 243 259 284 271 234 159 216 234 263 247 231 231 221 207 205 208 208 206 205 205
198 207 200 181 174 167 160 141 62 55 163 197 183 179 170 168 162 171 185 189 208 246 158 70 109 170 178 185 201 168 176 194 178 204 240 212 220 295 151 161 161 161 166 149 196 197 129 136 216 204 200 210 36 45 21 331 325 288 275 274 207 180 198 228 236 190 154 211 7 48 283 277 261 134 228 248 269 273 269 259 242 224 216 214 213 212 210 210
196 190 178 180 175 167 159 129 8 179 226 172 126 168 172 164 166 162 183 201 204 175 183 218 201 197 216 196 145 176 203 204 181 188 223 220 235 219 163 168 170 170 177 158 126 154 161 192 229 260 325 109 101 116 168 273 267 245 238 213 200 219 235 268 293 192 164 181 169 166 254 265 342 100 243 262 273 272 266 255 246 238 230 223 218 217 215 214
185 174 171 178 177 176 176 192 184 199 249 64 54 157 198 220 209 180 189 209 197 177 180 208 201 194 218 87 135 196 214 206 200 207 224 216 198 134 160 179 181 187 210 241 139 172 197 196 198 255 273 206 183 178 183 194 224 242 228 177 205 185 102 92 123 150 238 213 180 195 255 257 287 71 257 250 258 266 261 252 247 244 239 231 226 223 220 218
168 163 168 178 182 186 203 232 162 147 150 137 356 250 192 228 219 207 213 216 202 192 182 179 148 122 98 78 74 243 260 281 229 198 209 229 201 154 183 194 196 217 248 247 152 168 205 215 184 215 245 239 234 238 221 165 167 213 214 189 207 188 162 173 168 183 227 204 163 211 246 260 260 187 233 245 249 259 259 254 250 249 248 241 233 230 226 222
169 168 170 172 187 198 220 237 185 126 139 166 234 220 189 196 215 210 212 216 208 192 169 112 130 115 107 150 162 227 249 313 16 42 253 229 187 148 198 198 209 221 196 148 152 149 142 255 227 234 246 249 253 83 158 142 141 176 192 193 200 198 196 195 168 206 202 151 200 229 238 283 286 256 230 225 229 241 256 254 249 251 254 251 242 237 232 228
183 194 181 159 187 208 229 238 210 165 145 184 186 173 188 184 106 197 203 216 212 188 181 185 178 181 182 174 181 211 217 338 53 212 245 227 155 77 200 206 230 212 174 143 157 151 161 235 224 230 245 259 310 115 181 201 213 204 195 196 195 192 192 192 205 210 143 140 247 238 199 250 270 263 246 228 222 236 247 250 257 261 263 264 257 246 238 232
198 216 196 179 185 187 204 227 205 177 137 180 183 145 180 185 188 196 194 202 215 196 193 221 225 218 201 175 172 177 174 227 242 219 223 204 175 141 170 193 207 192 172 168 181 166 228 249 209 202 252 266 243 152 192 208 245 245 227 225 205 187 189 201 217 211 165 203 250 244 161 220 256 268 264 224 182 232 250 257 267 272 272 270 266 256 244 236
204 214 191 188 201 180 164 181 176 167 161 168 184 197 191 196 208 208 151 124 226 220 203 223 237 217 197 186 182 176 179 195 231 228 200 163 184 190 164 182 191 190 169 171 202 206 214 238 136 139 278 283 159 117 192 212 245 260 244 239 219 194 196 208 222 215 201 233 255 260 256 257 263 267 266 247 219 251 261 265 265 267 267 266 265 262 254 245
219 222 186 185 198 157 148 150 153 157 159 165 209 221 194 195 207 201 160 176 190 183 190 221 244 198 184 193 198 216 211 190 190 228 184 163 170 204 213 193 145 148 181 175 173 207 217 236 88 105 282 291 58 80 135 214 243 254 256 251 228 205 212 223 233 226 221 247 257 261 277 277 267 263 266 278 276 262 255 257 257 260 265 265 263 261 257 252
226 234 206 185 175 158 154 140 142 152 160 178 202 206 190 206 205 181 183 207 203 168 183 204 189 127 154 202 210 236 233 195 138 141 180 187 204 189 203 183 143 147 175 180 159 161 202 231 81 101 265 274 36 65 159 197 245 260 267 257 222 203 212 218 217 202 206 226 241 252 264 257 256 264 280 270 261 242 236 245 250 258 265 264 260 261 260 257
228 233 221 202 190 175 168 129 114 181 214 200 193 191 196 209 185 167 187 228 211 199 203 196 163 126 137 202 219 241 242 218 221 248 197 211 244 209 199 183 166 160 161 164 163 162 188 197 153 154 237 254 346 336 222 175 252 255 260 243 210 203 212 219 222 214 211 212 217 220 228 239 249 271 287 245 218 195 230 244 251 260 265 265 262 262 265 264